Flood From: 21-02-2018 18:00 Until: 22-02-2018 16:00 warning for: Flood Level: Yellow info button

Although rather usual in this region, locally or potentially dangerous phenomena are expected. (such as local winds, summer thunderstorms, rising streams or high waves) Be aware and pay attention to the latest weather updates, especially if you carry out activities exposed to weather or close to a stream or shoreline. 


Meteo18 Weather Cam more information Meteo18 Weather Cam


Thunder radar more information blitzortung!


Rain radar more information rain snow radar


Visit our other weather sites:

Template documentation
and downloads

And another site



Weather Underground History page Text

Daily Summary for September 15, 2016 Units:  Metric    English   Both
« Previous Day
Next Day »
Daily Weekly Monthly Yearly Custom
  High: Low: Average:
Temperature: -17.8 °C -10.6 °C -8.7 °C
Dew Point: -17.8 °C -11.1 °C -9.9 °C
Humidity: Humidity % 60 % 87 %
Wind Speed: 0 km/h 0 km/h 7.1 km/h
Wind Gust: 0 km/h - -
Wind:- - SSW
Pressure: 0 hPa 34144.4 hPa -
Precipitation: 33.02 mm    
Historical Graphs
 
 
Tabular Data for September 15, 2016
Time Temperature Dew Point Pressure Wind Wind Speed Wind Gust Humidity Rainfall Rate (Hourly)
-17.8 °C -17.8 °C 0 hPa Calm     Humidity % 0 mm
00:02 -8.1 °C -8.7 °C 34164.7 hPa ENE 12.9 km/h 20.8 km/h 93 % 33.02 mm
00:07 -8.1 °C -8.6 °C 34164.7 hPa ENE 15.6 km/h 23.3 km/h 94 % 25.4 mm
00:12 -8 °C -8.6 °C 34154.6 hPa NE 10.3 km/h 28.5 km/h 94 % 33.02 mm
00:17 -8 °C -8.6 °C 34154.6 hPa ENE 15.6 km/h 28.5 km/h 94 % 25.4 mm
00:22 -7.9 °C -8.5 °C 34154.6 hPa ENE 18.2 km/h 33.6 km/h 94 % 25.4 mm
00:27 -7.9 °C -8.6 °C 34154.6 hPa ENE 15.6 km/h 33.6 km/h 93 % 20.32 mm
00:32 -7.9 °C -8.6 °C 34154.6 hPa ENE 15.6 km/h 36.2 km/h 93 % 20.32 mm
00:42 -7.9 °C -8.5 °C 34154.6 hPa ENE 23.3 km/h 33.6 km/h 93 % 20.32 mm
00:47 -7.9 °C -8.5 °C 34154.6 hPa ENE 20.8 km/h 33.6 km/h 93 % 12.7 mm
00:52 -7.9 °C -8.6 °C 34154.6 hPa ENE 23.3 km/h 33.6 km/h 92 % 12.7 mm
00:57 -7.9 °C -8.6 °C 34154.6 hPa ENE 18.2 km/h 36.2 km/h 92 % 12.7 mm
01:02 -7.9 °C -8.7 °C 34144.4 hPa ENE 12.9 km/h 36.2 km/h 91 % 7.62 mm
01:07 -7.9 °C -8.6 °C 34154.6 hPa East 7.7 km/h 28.5 km/h 92 % 0 mm
01:12 -7.9 °C -8.7 °C 34154.6 hPa East 2.6 km/h 23.3 km/h 92 % 0 mm
01:17 -7.9 °C -8.7 °C 34154.6 hPa ESE 2.6 km/h 15.6 km/h 92 % 0 mm
01:22 -8 °C -8.6 °C 34154.6 hPa NE 2.6 km/h 12.9 km/h 93 % 0 mm
01:32 -8.1 °C -8.7 °C 34154.6 hPa ESE 2.6 km/h 5.1 km/h 93 % 0 mm
01:37 -8.1 °C -8.7 °C 34164.7 hPa ESE 2.6 km/h 5.1 km/h 93 % 0 mm
01:42 -8.1 °C -8.7 °C 34164.7 hPa Calm   5.1 km/h 93 % 0 mm
01:47 -8.1 °C -8.7 °C 34178.3 hPa SSW 2.6 km/h 5.1 km/h 93 % 0 mm
01:52 -8.1 °C -8.7 °C 34178.3 hPa SSW 7.7 km/h 7.7 km/h 94 % 0 mm
01:57 -8.1 °C -8.7 °C 34178.3 hPa SSW 2.6 km/h 12.9 km/h 94 % 0 mm
02:12 -8.2 °C -8.7 °C 34178.3 hPa South 10.3 km/h 23.3 km/h 94 % 0 mm
02:17 -8.2 °C -8.8 °C 34178.3 hPa South 10.3 km/h 23.3 km/h 94 % 0 mm
02:22 -8.3 °C -8.8 °C 34178.3 hPa SW 10.3 km/h 23.3 km/h 94 % 7.62 mm
02:32 -8.4 °C -8.9 °C 34178.3 hPa SW 2.6 km/h 23.3 km/h 94 % 12.7 mm
02:37 -8.4 °C -8.9 °C 34164.7 hPa Calm   15.6 km/h 94 % 12.7 mm
02:42 -8.4 °C -8.9 °C 34178.3 hPa Calm   10.3 km/h 95 % 12.7 mm
02:52 -8.4 °C -8.9 °C 34164.7 hPa SE 2.6 km/h 7.7 km/h 95 % 12.7 mm
02:57 -8.5 °C -8.9 °C 34178.3 hPa SSW 7.7 km/h 7.7 km/h 95 % 20.32 mm
03:02 -8.5 °C -8.9 °C 34178.3 hPa South 2.6 km/h 18.2 km/h 95 % 20.32 mm
03:07 -8.5 °C -8.9 °C 34164.7 hPa SSW 5.1 km/h 18.2 km/h 95 % 20.32 mm
03:12 -8.6 °C -9 °C 34164.7 hPa Calm   18.2 km/h 95 % 20.32 mm
03:17 -8.6 °C -9 °C 34164.7 hPa Calm   10.3 km/h 95 % 12.7 mm
03:22 -8.6 °C -9 °C 34154.6 hPa Calm   10.3 km/h 95 % 12.7 mm
03:27 -8.6 °C -9 °C 34154.6 hPa Calm   7.7 km/h 95 % 12.7 mm
03:32 -8.6 °C -9 °C 34164.7 hPa Calm   7.7 km/h 95 % 12.7 mm
03:37 -8.6 °C -9 °C 34154.6 hPa Calm   2.6 km/h 95 % 12.7 mm
03:42 -8.6 °C -9 °C 34154.6 hPa Calm     95 % 7.62 mm
03:52 -8.7 °C -9.1 °C 34154.6 hPa SE 2.6 km/h 2.6 km/h 95 % 7.62 mm
03:57 -8.7 °C -9 °C 34144.4 hPa South 2.6 km/h 7.7 km/h 96 % 0 mm
04:02 -8.7 °C -9.1 °C 34154.6 hPa South 2.6 km/h 7.7 km/h 95 % 0 mm
04:07 -8.7 °C -9.1 °C 34154.6 hPa SSW 5.1 km/h 7.7 km/h 95 % 0 mm
04:12 -8.6 °C -8.9 °C 34164.7 hPa SW 7.7 km/h 10.3 km/h 96 % 0 mm
04:17 -8.6 °C -8.9 °C 34164.7 hPa SSW 7.7 km/h 10.3 km/h 96 % 0 mm
04:22 -8.7 °C -9 °C 34164.7 hPa South 2.6 km/h 15.6 km/h 96 % 0 mm
04:27 -8.7 °C -9 °C 34164.7 hPa SW 12.9 km/h 18.2 km/h 96 % 0 mm
04:32 -8.7 °C -9.2 °C 34164.7 hPa SSW 7.7 km/h 20.8 km/h 95 % 0 mm
04:37 -8.8 °C -9.1 °C 34164.7 hPa SW 10.3 km/h 20.8 km/h 96 % 0 mm
04:42 -8.8 °C -9.2 °C 34154.6 hPa SSW 12.9 km/h 23.3 km/h 96 % 0 mm
04:47 -8.8 °C -9.2 °C 34144.4 hPa SW 7.7 km/h 23.3 km/h 96 % 0 mm
04:52 -8.9 °C -9.2 °C 34154.6 hPa SW 5.1 km/h 23.3 km/h 96 % 0 mm
04:57 -8.9 °C -9.2 °C 34154.6 hPa SW 2.6 km/h 20.8 km/h 96 % 0 mm
05:02 -8.9 °C -9.2 °C 34154.6 hPa SW 10.3 km/h 18.2 km/h 96 % 0 mm
05:12 -8.9 °C -9.3 °C 34154.6 hPa SSW 15.6 km/h 23.3 km/h 96 % 0 mm
05:17 -8.9 °C -9.3 °C 34154.6 hPa SSW 7.7 km/h 23.3 km/h 96 % 0 mm
05:22 -8.9 °C -9.3 °C 34154.6 hPa South 5.1 km/h 23.3 km/h 96 % 0 mm
05:27 -8.9 °C -9.3 °C 34154.6 hPa ESE 5.1 km/h 20.8 km/h 96 % 0 mm
05:32 -8.9 °C -9.3 °C 34154.6 hPa South 2.6 km/h 15.6 km/h 96 % 0 mm
05:37 -9 °C -9.3 °C 34154.6 hPa South 2.6 km/h 15.6 km/h 96 % 0 mm
05:42 -9 °C -9.3 °C 34154.6 hPa SW 2.6 km/h 12.9 km/h 96 % 0 mm
05:47 -9 °C -9.3 °C 34154.6 hPa South 5.1 km/h 12.9 km/h 96 % 0 mm
05:52 -9 °C -9.3 °C 34154.6 hPa SW 7.7 km/h 15.6 km/h 97 % 0 mm
05:57 -9 °C -9.3 °C 34154.6 hPa SSW 10.3 km/h 15.6 km/h 97 % 0 mm
06:02 -9 °C -9.3 °C 34164.7 hPa SSW 12.9 km/h 15.6 km/h 97 % 0 mm
06:12 -9.1 °C -9.3 °C 34154.6 hPa SW 23.3 km/h 23.3 km/h 97 % 0 mm
06:17 -9.1 °C -9.4 °C 34164.7 hPa SW 12.9 km/h 23.3 km/h 96 % 0 mm
06:22 -9.2 °C -9.6 °C 34164.7 hPa West 2.6 km/h 25.9 km/h 96 % 0 mm
06:27 -9.2 °C -9.6 °C 34164.7 hPa SW 15.6 km/h 25.9 km/h 96 % 0 mm
06:32 -9.3 °C -9.6 °C 34164.7 hPa West 10.3 km/h 25.9 km/h 96 % 0 mm
06:37 -9.3 °C -9.6 °C 34164.7 hPa SW 10.3 km/h 25.9 km/h 96 % 0 mm
06:47 -9.3 °C -9.7 °C 34164.7 hPa West 10.3 km/h 25.9 km/h 96 % 0 mm
06:52 -9.3 °C -9.6 °C 34164.7 hPa SW 2.6 km/h 20.8 km/h 97 % 0 mm
06:57 -9.3 °C -9.6 °C 34178.3 hPa West 10.3 km/h 20.8 km/h 97 % 0 mm
07:02 -9.4 °C -9.7 °C 34178.3 hPa SSW 10.3 km/h 18.2 km/h 97 % 0 mm
07:12 -9.4 °C -9.7 °C 34178.3 hPa SW 5.1 km/h 18.2 km/h 97 % 0 mm
07:17 -9.4 °C -9.7 °C 34178.3 hPa SW 10.3 km/h 15.6 km/h 97 % 7.62 mm
07:32 -9.3 °C -9.6 °C 34178.3 hPa SW 5.1 km/h 15.6 km/h 97 % 7.62 mm
07:42 -9.3 °C -9.6 °C 34188.4 hPa SSW 2.6 km/h 15.6 km/h 97 % 7.62 mm
07:47 -9.3 °C -9.6 °C 34188.4 hPa South 12.9 km/h 15.6 km/h 97 % 7.62 mm
07:52 -9.3 °C -9.6 °C 34188.4 hPa SW 5.1 km/h 12.9 km/h 97 % 7.62 mm
07:57 -9.3 °C -9.6 °C 34198.6 hPa SSW 7.7 km/h 12.9 km/h 97 % 7.62 mm
08:02 -9.3 °C -9.6 °C 34198.6 hPa SSW 5.1 km/h 12.9 km/h 97 % 7.62 mm
08:12 -9.3 °C -9.6 °C 34188.4 hPa SSW 7.7 km/h 12.9 km/h 97 % 7.62 mm
08:17 -9.3 °C -9.6 °C 34188.4 hPa SSW 10.3 km/h 10.3 km/h 97 % 0 mm
08:22 -9.3 °C -9.6 °C 34188.4 hPa SW 10.3 km/h 23.3 km/h 97 % 0 mm
08:27 -9.4 °C -9.7 °C 34188.4 hPa SW 10.3 km/h 23.3 km/h 97 % 0 mm
08:32 -9.4 °C -9.7 °C 34198.6 hPa South 10.3 km/h 23.3 km/h 97 % 0 mm
08:37 -9.4 °C -9.7 °C 34188.4 hPa SW 10.3 km/h 25.9 km/h 97 % 0 mm
08:42 -9.4 °C -9.7 °C 34198.6 hPa WSW 12.9 km/h 25.9 km/h 97 % 0 mm
08:47 -9.4 °C -9.7 °C 34198.6 hPa SSW 23.3 km/h 25.9 km/h 97 % 0 mm
08:52 -9.5 °C -9.8 °C 34198.6 hPa SW 15.6 km/h 28.5 km/h 96 % 0 mm
09:02 -9.8 °C -10.1 °C 34198.6 hPa SW 15.6 km/h 41.4 km/h 96 % 0 mm
09:12 -9.9 °C -10.3 °C 34212.1 hPa SW 18.2 km/h 41.4 km/h 96 % 0 mm
09:17 -9.9 °C -10.3 °C 34212.1 hPa WSW 20.8 km/h 33.6 km/h 96 % 0 mm
09:22 -9.9 °C -10.3 °C 34212.1 hPa SSW 12.9 km/h 33.6 km/h 96 % 0 mm
09:32 -9.9 °C -10.2 °C 34212.1 hPa SW 18.2 km/h 33.6 km/h 96 % 0 mm
09:42 -9.9 °C -10.2 °C 34212.1 hPa SSW 20.8 km/h 33.6 km/h 96 % 0 mm
09:47 -9.9 °C -10.2 °C 34212.1 hPa SSW 7.7 km/h 31.1 km/h 96 % 0 mm
09:52 -9.9 °C -10.2 °C 34212.1 hPa WSW 15.6 km/h 33.6 km/h 96 % 0 mm
09:57 -9.9 °C -10.3 °C 34222.3 hPa WSW 12.9 km/h 33.6 km/h 95 % 0 mm
10:02 -9.9 °C -10.3 °C 34222.3 hPa SSW 5.1 km/h 33.6 km/h 95 % 0 mm
10:12 -9.8 °C -10.3 °C 34222.3 hPa WSW 15.6 km/h 38.8 km/h 95 % 0 mm
10:17 -9.8 °C -10.2 °C 34222.3 hPa SW 20.8 km/h 38.8 km/h 95 % 0 mm
10:22 -9.8 °C -10.2 °C 34222.3 hPa SW 10.3 km/h 33.6 km/h 95 % 0 mm
10:32 -9.7 °C -10.2 °C 34222.3 hPa SSW 2.6 km/h 31.1 km/h 95 % 0 mm
10:42 -9.6 °C -10.2 °C 34235.8 hPa SSW 28.5 km/h 31.1 km/h 94 % 0 mm
10:47 -9.6 °C -10.2 °C 34235.8 hPa SSE 10.3 km/h 33.6 km/h 94 % 0 mm
10:52 -9.6 °C -10.2 °C 34235.8 hPa WSW 18.2 km/h 33.6 km/h 94 % 0 mm
11:02 -9.6 °C -10.2 °C 34246 hPa SSW 12.9 km/h 33.6 km/h 94 % 0 mm
11:12 -9.4 °C -10 °C 34246 hPa SSW 12.9 km/h 33.6 km/h 94 % 0 mm
11:22 -9.4 °C -10.2 °C 34256.2 hPa WSW 20.8 km/h 28.5 km/h 92 % 0 mm
11:32 -9.4 °C -10.2 °C 34256.2 hPa WSW 18.2 km/h 28.5 km/h 92 % 0 mm
11:37 -9.4 °C -10.1 °C 34256.2 hPa WSW 10.3 km/h 28.5 km/h 92 % 0 mm
11:47 -9.3 °C -10.1 °C 34256.2 hPa WSW 12.9 km/h 25.9 km/h 91 % 0 mm
11:52 -9.2 °C -10.1 °C 34256.2 hPa West 12.9 km/h 31.1 km/h 90 % 0 mm
11:57 -9.2 °C -10 °C 34256.2 hPa SW 15.6 km/h 31.1 km/h 91 % 0 mm
12:02 -9.1 °C -9.9 °C 34246 hPa WSW 23.3 km/h 28.5 km/h 91 % 0 mm
12:07 -8.9 °C -9.8 °C 34246 hPa WSW 10.3 km/h 28.5 km/h 90 % 0 mm
12:12 -8.9 °C -9.9 °C 34246 hPa WSW 15.6 km/h 28.5 km/h 89 % 0 mm
12:17 -8.8 °C -9.7 °C 34256.2 hPa WSW 12.9 km/h 28.5 km/h 90 % 0 mm
12:22 -8.8 °C -9.9 °C 34256.2 hPa West 12.9 km/h 25.9 km/h 88 % 0 mm
12:27 -8.9 °C -10.2 °C 34256.2 hPa WSW 7.7 km/h 28.5 km/h 86 % 0 mm
12:32 -8.9 °C -10.2 °C 34256.2 hPa WSW 10.3 km/h 28.5 km/h 87 % 0 mm
12:37 -8.8 °C -9.9 °C 34269.7 hPa SW 10.3 km/h 28.5 km/h 88 % 0 mm
12:42 -8.7 °C -10.1 °C 34269.7 hPa WNW 7.7 km/h 28.5 km/h 85 % 0 mm
12:52 -8.7 °C -10 °C 34269.7 hPa SSW 10.3 km/h 31.1 km/h 86 % 0 mm
12:57 -8.7 °C -10 °C 34269.7 hPa SW 12.9 km/h 31.1 km/h 86 % 0 mm
13:02 -8.7 °C -10.1 °C 34269.7 hPa WSW 20.8 km/h 28.5 km/h 85 % 0 mm
13:07 -8.7 °C -10.2 °C 34269.7 hPa SSW 5.1 km/h 31.1 km/h 84 % 0 mm
13:12 -8.6 °C -10 °C 34269.7 hPa SW 15.6 km/h 31.1 km/h 85 % 0 mm
13:17 -8.5 °C -9.9 °C 34269.7 hPa West 2.6 km/h 31.1 km/h 85 % 0 mm
13:22 -8.6 °C -10.1 °C 34269.7 hPa WSW 12.9 km/h 25.9 km/h 84 % 0 mm
13:27 -8.7 °C -10.3 °C 34269.7 hPa SW 10.3 km/h 25.9 km/h 83 % 0 mm
13:32 -8.7 °C -10.2 °C 34269.7 hPa SSW 10.3 km/h 25.9 km/h 84 % 0 mm
13:37 -8.6 °C -10.1 °C 34279.9 hPa WSW 2.6 km/h 25.9 km/h 84 % 0 mm
13:42 -8.6 °C -10.2 °C 34269.7 hPa SW 18.2 km/h 25.9 km/h 83 % 0 mm
13:52 -8.7 °C -10.1 °C 34269.7 hPa SW 18.2 km/h 23.3 km/h 85 % 0 mm
14:02 -8.8 °C -10.1 °C 34279.9 hPa South 10.3 km/h 25.9 km/h 86 % 0 mm
14:12 -8.6 °C -10.1 °C 34279.9 hPa South 15.6 km/h 20.8 km/h 84 % 0 mm
14:17 -8.5 °C -10.1 °C 34279.9 hPa SSW 10.3 km/h 25.9 km/h 83 % 0 mm
14:22 -8.5 °C -10.1 °C 34279.9 hPa West 7.7 km/h 25.9 km/h 83 % 0 mm
14:32 -8.4 °C -9.9 °C 34279.9 hPa SSW 5.1 km/h 23.3 km/h 84 % 0 mm
14:37 -8.5 °C -10 °C 34279.9 hPa SW 15.6 km/h 23.3 km/h 84 % 0 mm
14:42 -8.6 °C -9.9 °C 34279.9 hPa SSW 5.1 km/h 23.3 km/h 85 % 0 mm
14:47 -8.6 °C -9.9 °C 34279.9 hPa SW 7.7 km/h 23.3 km/h 85 % 0 mm
14:52 -8.6 °C -10.1 °C 34279.9 hPa SW 10.3 km/h 20.8 km/h 84 % 0 mm
15:02 -8.2 °C -9.9 °C 34279.9 hPa Calm   18.2 km/h 82 % 0 mm
15:12 -7.9 °C -10.2 °C 34269.7 hPa WNW 7.7 km/h 18.2 km/h 77 % 0 mm
15:17 -7.9 °C -10.2 °C 34269.7 hPa WSW 2.6 km/h 18.2 km/h 77 % 0 mm
15:22 -7.8 °C -10.1 °C 34269.7 hPa Calm   18.2 km/h 77 % 0 mm
15:27 -7.7 °C -10 °C 34269.7 hPa SW 5.1 km/h 10.3 km/h 77 % 0 mm
15:32 -7.6 °C -10.2 °C 34269.7 hPa South 7.7 km/h 15.6 km/h 74 % 0 mm
15:37 -7.6 °C -10.1 °C 34269.7 hPa SSW 5.1 km/h 15.6 km/h 75 % 0 mm
15:42 -7.6 °C -10.2 °C 34269.7 hPa SSW 10.3 km/h 15.6 km/h 74 % 0 mm
15:47 -7.6 °C -10.2 °C 34269.7 hPa Calm   15.6 km/h 74 % 0 mm
15:52 -7.4 °C -10.1 °C 34269.7 hPa SSW 5.1 km/h 15.6 km/h 73 % 0 mm
15:57 -7.4 °C -10.2 °C 34256.2 hPa WSW 7.7 km/h 15.6 km/h 73 % 0 mm
16:02 -7.5 °C -10.2 °C 34269.7 hPa West 5.1 km/h 12.9 km/h 73 % 0 mm
16:12 -7.3 °C -10.3 °C 34256.2 hPa Calm   12.9 km/h 71 % 0 mm
16:17 -7.3 °C -10.4 °C 34256.2 hPa SW 2.6 km/h 12.9 km/h 70 % 0 mm
16:22 -7.3 °C -10.6 °C 34256.2 hPa SSW 12.9 km/h 12.9 km/h 69 % 0 mm
16:32 -7.3 °C -10.3 °C 34256.2 hPa Calm   18.2 km/h 71 % 0 mm
16:37 -7.4 °C -10.6 °C 34256.2 hPa Calm   18.2 km/h 69 % 0 mm
16:42 -7.4 °C -10.6 °C 34256.2 hPa West 2.6 km/h 15.6 km/h 69 % 0 mm
16:47 -7.3 °C -10.6 °C 34256.2 hPa SSE 2.6 km/h 15.6 km/h 69 % 0 mm
16:52 -7.3 °C -10.6 °C 34269.7 hPa SW 12.9 km/h 18.2 km/h 68 % 0 mm
16:57 -7.1 °C -10.5 °C 34256.2 hPa SSE 15.6 km/h 18.2 km/h 68 % 0 mm
17:02 -7.2 °C -10.7 °C 34269.7 hPa SW 5.1 km/h 25.9 km/h 67 % 0 mm
17:07 -7.3 °C -10.8 °C 34269.7 hPa South 2.6 km/h 25.9 km/h 67 % 0 mm
17:12 -7.3 °C -10.6 °C 34256.2 hPa SSW 10.3 km/h 25.9 km/h 68 % 0 mm
17:17 -7.3 °C -10.6 °C 34256.2 hPa Calm   15.6 km/h 69 % 0 mm
17:22 -7.3 °C -10.7 °C 34256.2 hPa SW 7.7 km/h 15.6 km/h 68 % 0 mm
17:32 -7.3 °C -10.8 °C 34256.2 hPa WSW 2.6 km/h 15.6 km/h 67 % 0 mm
17:42 -7.2 °C -10.4 °C 34256.2 hPa SSW 7.7 km/h 12.9 km/h 69 % 0 mm
17:47 -7.2 °C -10.6 °C 34256.2 hPa South 2.6 km/h 12.9 km/h 68 % 0 mm
17:52 -7.1 °C -10.5 °C 34269.7 hPa SW 2.6 km/h 12.9 km/h 68 % 0 mm
17:57 -6.9 °C -10.5 °C 34256.2 hPa SW 5.1 km/h 12.9 km/h 66 % 0 mm
18:02 -6.9 °C -10.5 °C 34256.2 hPa SSW 5.1 km/h 12.9 km/h 66 % 0 mm
18:12 -6.9 °C -10.3 °C 34256.2 hPa West 10.3 km/h 12.9 km/h 68 % 0 mm
18:17 -6.8 °C -10.6 °C 34256.2 hPa WSW 7.7 km/h 12.9 km/h 65 % 0 mm
18:22 -6.6 °C -10.5 °C 34256.2 hPa SW 7.7 km/h 12.9 km/h 64 % 0 mm
18:27 -6.6 °C -10.3 °C 34256.2 hPa SSW 2.6 km/h 12.9 km/h 65 % 0 mm
18:32 -6.4 °C -10.3 °C 34256.2 hPa SW 12.9 km/h 12.9 km/h 64 % 0 mm
18:37 -6.7 °C -10.6 °C 34269.7 hPa SSW 2.6 km/h 10.3 km/h 64 % 0 mm
18:42 -6.7 °C -10.6 °C 34256.2 hPa Calm   15.6 km/h 64 % 0 mm
18:52 -6.5 °C -10.6 °C 34269.7 hPa West 2.6 km/h 10.3 km/h 63 % 0 mm
18:57 -6.6 °C -10.7 °C 34269.7 hPa West 2.6 km/h 10.3 km/h 62 % 0 mm
19:02 -6.6 °C -10.7 °C 34269.7 hPa WSW 2.6 km/h 7.7 km/h 63 % 0 mm
19:07 -6.6 °C -10.4 °C 34269.7 hPa Calm   7.7 km/h 64 % 0 mm
19:12 -6.3 °C -10.4 °C 34279.9 hPa Calm   7.7 km/h 62 % 0 mm
19:17 -6.1 °C -10.4 °C 34279.9 hPa Calm   5.1 km/h 61 % 0 mm
19:22 -5.8 °C -10.3 °C 34279.9 hPa Calm   2.6 km/h 60 % 0 mm
19:27 -6 °C -10.5 °C 34279.9 hPa Calm     60 % 0 mm
19:32 -6.5 °C -10.7 °C 34279.9 hPa Calm     62 % 0 mm
19:37 -6.7 °C -10.6 °C 34279.9 hPa Calm     64 % 0 mm
19:42 -6.8 °C -10.6 °C 34279.9 hPa Calm     65 % 0 mm
19:47 -7.1 °C -10.6 °C 34279.9 hPa Calm     67 % 0 mm
19:52 -7.4 °C -10.1 °C 34279.9 hPa West 2.6 km/h 2.6 km/h 73 % 0 mm
19:57 -7.7 °C -10.1 °C 34269.7 hPa Calm   2.6 km/h 76 % 0 mm
20:02 -7.9 °C -10.3 °C 34269.7 hPa Calm   2.6 km/h 76 % 0 mm
20:12 -8.4 °C -10.4 °C 34279.9 hPa Calm     79 % 0 mm
20:17 -8.4 °C -10.3 °C 34279.9 hPa Calm     81 % 0 mm
20:22 -8.5 °C -10.3 °C 34279.9 hPa Calm     81 % 0 mm
20:32 -8.8 °C -10.4 °C 34293.4 hPa Calm     83 % 0 mm
20:42 -9.1 °C -10.6 °C 34293.4 hPa Calm     84 % 0 mm
20:47 -9.2 °C -10.6 °C 34303.6 hPa Calm     85 % 0 mm
20:52 -9.2 °C -10.5 °C 34303.6 hPa Calm   2.6 km/h 86 % 0 mm
20:57 -9.3 °C -10.6 °C 34303.6 hPa Calm   2.6 km/h 87 % 0 mm
21:02 -9.3 °C -10.6 °C 34303.6 hPa Calm   2.6 km/h 87 % 0 mm
21:07 -9.3 °C -10.6 °C 34303.6 hPa Calm   2.6 km/h 87 % 0 mm
21:12 -9.4 °C -10.6 °C 34303.6 hPa Calm   2.6 km/h 87 % 0 mm
21:17 -9.6 °C -10.7 °C 34303.6 hPa Calm   2.6 km/h 88 % 0 mm
21:22 -9.7 °C -10.7 °C 34303.6 hPa Calm   2.6 km/h 89 % 0 mm
21:32 -9.8 °C -10.7 °C 34303.6 hPa Calm     90 % 0 mm
21:37 -9.9 °C -10.7 °C 34313.7 hPa Calm     91 % 0 mm
21:42 -9.9 °C -10.7 °C 34313.7 hPa Calm     92 % 0 mm
21:47 -9.9 °C -10.7 °C 34313.7 hPa Calm     92 % 0 mm
21:52 -9.9 °C -10.6 °C 34313.7 hPa Calm     93 % 0 mm
21:57 -9.9 °C -10.7 °C 34313.7 hPa Calm     92 % 0 mm
22:02 -9.9 °C -10.7 °C 34313.7 hPa Calm     92 % 0 mm
22:12 -10.1 °C -10.8 °C 34313.7 hPa Calm     92 % 0 mm
22:17 -10.2 °C -10.8 °C 34313.7 hPa WNW 5.1 km/h 5.1 km/h 93 % 0 mm
22:22 -10.2 °C -10.8 °C 34313.7 hPa Calm   5.1 km/h 93 % 0 mm
22:27 -10.2 °C -10.7 °C 34313.7 hPa NNE 2.6 km/h 5.1 km/h 94 % 0 mm
22:32 -10.2 °C -10.7 °C 34313.7 hPa Calm   5.1 km/h 94 % 0 mm
22:37 -10.3 °C -10.9 °C 34313.7 hPa Calm   5.1 km/h 93 % 0 mm
22:42 -10.3 °C -10.9 °C 34327.3 hPa Calm   5.1 km/h 93 % 0 mm
22:47 -10.4 °C -11 °C 34327.3 hPa Calm   2.6 km/h 93 % 0 mm
22:52 -10.4 °C -10.9 °C 34327.3 hPa Calm   2.6 km/h 94 % 0 mm
22:57 -10.4 °C -10.9 °C 34327.3 hPa NW 2.6 km/h 2.6 km/h 94 % 0 mm
23:02 -10.4 °C -10.9 °C 34327.3 hPa WNW 5.1 km/h 5.1 km/h 94 % 0 mm
23:12 -10.5 °C -11 °C 34327.3 hPa WNW 5.1 km/h 5.1 km/h 94 % 0 mm
23:17 -10.5 °C -10.9 °C 34327.3 hPa North 5.1 km/h 5.1 km/h 95 % 0 mm
23:22 -10.4 °C -10.9 °C 34327.3 hPa North 5.1 km/h 5.1 km/h 95 % 0 mm
23:27 -10.5 °C -11 °C 34327.3 hPa NNW 7.7 km/h 7.7 km/h 94 % 0 mm
23:32 -10.4 °C -10.9 °C 34327.3 hPa Calm   7.7 km/h 94 % 0 mm
23:37 -10.4 °C -10.9 °C 34327.3 hPa Calm   7.7 km/h 94 % 0 mm
23:42 -10.4 °C -10.9 °C 34327.3 hPa Calm   7.7 km/h 94 % 0 mm
23:52 -10.6 °C -11.1 °C 34337.4 hPa Calm   2.6 km/h 94 % 0 mm
23:57 -10.6 °C -11.1 °C 34337.4 hPa Calm   2.6 km/h 94 % 0 mm
Meteo18
Compliments of Weather Underground - 4 mb

Script developed by  Jim McMurry - jmcmurry@mwt.net Adapted for the template by  Wim van der Kuil - Leuven-Template.eu

You find our weather info also at:

European Weather Network

Weather Underground

Equipment we use:

Weather-station
Davis Vue

Weather-program
Meteobridge

Weather-server
Raspberry PI 2 B+

Provider
1 and 1

Davis Vue

Meteobridge

Raspberry PI 2 B+

1 and 1